Location: Newark
(34.6283°N, 36.0776°E)
Time: 22:17:16
(UTC+00:00)

A-11 Canister half - Pass Details

Date: 18 September 2019
Orbit: 1527 x 1682 km, 47.3° (Epoch: 20 October)

Event Time Altitude Azimuth Distance (km) Brightness Sun altitude
Rises 22:35:16 0° 170° (S) 4,661 - -50.6°
Reaches altitude 10° 22:40:53 10° 143° (SE) 3,692 - -50.0°
Maximum altitude 22:44:13 12° 121° (ESE) 3,518 - -49.7°
Exits shadow 22:46:57 11° 104° (ESE) 3,655 11.0 -49.4°
Drops below altitude 10° 22:47:34 10° 100° (E) 3,720 11.1 -49.4°
Sets 22:53:14 0° 74° (ENE) 4,738 12.0 -48.7°
